User: anonymous   Login
Location: Plainartige
(45.6866°N, 1.7993°E)
Time: 20:37:19
(UTC+00:00)
Language:

SJ 16-02 - Orbit

View from above orbital plane
View from above orbital plane
View from above satellite
View from above satellite

Ground track
Ground track

The orbit data is extracted from the following two-line orbital elements,

1 41634U 16043A   21135.11348431 -.00000336  00000-0 -35452-4 0  9996
2 41634  75.0020 172.5390 0008565 225.1700 134.8783 14.85798927264491
Epoch (UTC): 15 May 2021 02:43:25
Eccentricity: 0.0008565
inclination: 75.0020°
perigee height: 605 km
apogee height: 617 km
right ascension of ascending node: 172.5390°
argument of perigee: 225.1700°
revolutions per day: 14.85798927
mean anomaly at epoch: 134.8783°
orbit number at epoch: 26449

The dashed part of the orbit path shows where the satellite is in the earth's shadow,  

DLR